www.pogodaiklimat.ru
ПОГОДА в Шавано
Время
(UTC), дата
02:15 19.11
02:35 19.11
02:55 19.11
03:15 19.11
03:35 19.11
03:55 19.11
04:15 19.11
04:35 19.11
04:55 19.11
05:15 20.11
05:35 20.11
05:55 20.11
06:15 20.11
06:35 20.11
06:55 20.11
07:15 20.11
07:35 20.11
07:55 20.11
08:15 20.11
08:35 20.11
08:55 20.11
09:15 20.11
09:35 20.11
09:55 20.11
10:15 20.11
10:35 20.11
10:55 20.11
11:15 20.11
11:35 20.11
11:55 20.11
12:15 20.11
12:35 20.11
12:55 20.11
13:15 20.11
13:35 20.11
13:55 20.11
14:15 20.11
14:35 20.11
14:55 20.11
15:15 20.11
15:35 20.11
15:55 20.11
16:15 20.11
16:35 20.11
16:55 20.11
17:35 20.11
17:55 20.11
18:15 20.11
Ветер
(напр.,м/с)
Видим. Явления Облачность Т
(С)
Тd
(С)
f
(%)
Тe
(С)
Тes
(С)
Комфортность P
(гПа)
Po
(гПа)
Тmin
(С)
Tmax
(С)
R
(мм)
R24
(мм)
S
(см)
0 16 км 10/10 1110 м +2.1 -0.7 82 +1 +1 984.3
0 16 км 10/10 1110 м +2.1 -0.7 82 +1 +1 984.3
0 16 км 10/10 660 м +2.1 -0.6 82 +1 +1 984.6
0 16 км 10/10 660 м +2.1 -0.5 83 +1 +1 984.6
0 16 км 10/10 1170 м +2.1 -0.6 82 +1 +1 984.6
0 16 км 10/10 1110 м +2.1 -0.5 83 +1 +1 985.0
0 16 км 10/10 1110 м +2.1 -0.5 83 +1 +1 985.3
0 16 км 10/10 1110 м +2.1 -0.5 83 +1 +1 985.3
0 16 км 10/10 1110 м +2.0 -0.5 83 +1 +1 985.6 +1.8 +2.2
ЮЗ 1 16 км 10/10 1110 м +2.2 -0.4 83 -0 -0 985.9
0 11 км 10/10 1110 м +2.2 -0.2 84 +1 +1 986.3
0 11 км 10/10 1170 м +2.3 -0.2 84 +1 +1 986.3
0 11 км 10/10 1170 м +2.4 0.0 84 +1 +1 986.3
0 11 км 10/10 1110 м +2.4 -0.1 84 +1 +1 986.6
0 11 км 10/10 1050 м +2.3 0.0 85 +1 +1 986.6
0 11 км 10/10 1050 м +2.1 -0.2 85 +1 +1 986.9
0 11 км 10/10 990 м +2.0 -0.2 85 +1 +1 987.3
0 11 км 10/10 990 м +2.0 -0.1 86 +1 +1 987.3
0 11 км 10/10 780 м +2.1 0.0 86 +1 +1 987.6
0 11 км 10/10 780 м +2.2 0.0 85 +1 +1 987.6
0 11 км 10/10 870 м +2.2 0.0 85 +1 +1 987.6
0 11 км 10/10 870 м +2.2 0.0 85 +1 +1 987.9
ЮЗ 1 11 км 10/10 810 м +2.2 0.0 85 -0 -0 988.6
ЮЗ 1 11 км 10/10 750 м +2.3 0.0 85 -0 -0 988.6
ЮЗ 2 11 км 10/10 750 м +2.3 0.0 85 -2 -2 988.9
ЮЗ 1 11 км 10/10 750 м +2.4 0.0 84 -0 -0 988.9
0 11 км 10/10 750 м +2.5 +0.1 84 +1 +1 989.2 +2.0 +2.5
0 11 км 10/10 690 м +2.3 +0.1 85 +1 +1 989.2
0 11 км 10/10 750 м +2.5 +0.2 85 +1 +1 989.6
0 11 км 10/10 750 м +2.5 +0.2 85 +1 +1 989.2
0 11 км 10/10 810 м +2.2 +0.3 87 +1 +1 989.2
0 8 км дымка 10/10 810 м +2.2 +0.6 89 +1 +1 989.9
0 8 км дымка 10/10 810 м +2.5 +0.7 88 +1 +1 990.2
0 8 км дымка 10/10 810 м +2.6 +0.8 88 +2 +2 989.9
0 8 км дымка 10/10 750 м +2.8 +0.9 87 +2 +2 989.9
0 8 км дымка 10/10 750 м +3.0 +1.0 87 +2 +2 990.2
0 11 км 10/10 750 м +3.2 +1.1 86 +2 +2 990.2
0 11 км 10/10 750 м +3.5 +1.2 85 +2 +2 990.2
ЮЗ 2 11 км 10/10 750 м +3.8 +1.3 84 0 0 990.5
ЮЗ 1 11 км 10/10 750 м +4.0 +1.4 83 +2 +2 990.5
0 11 км 10/10 750 м +4.0 +1.4 83 +3 +3 990.5
0 11 км 10/10 750 м +4.2 +1.5 83 +3 +3 990.2
0 16 км 10/10 750 м +4.6 +1.6 81 +4 +4 990.2
Ю 1 16 км 10/10 750 м +5.0 +1.7 79 +3 +3 990.2
Ю 1 16 км 10/10 810 м +5.4 +2.0 79 +3 +3 990.2 +2.1 +5.4
0 16 км 10/10 870 м +5.7 +2.0 77 +5 +5 989.9
ЮВ 1 16 км 10/10 870 м +6.9 +2.2 72 +5 +5 989.6
0 16 км 10/10 870 м +7.5 +2.1 69 +7 +7 989.6
Местоположение метеостанции Shawano Municipal Airport: широта 44.7870 долгота -88.5600 высота над уровнем моря 248 м.
В архиве по умолчанию представлена погода в Шавано за последние 1-2 суток. Обновление информации о фактической погоде в базе происходит ежечасно! Архивные данные за месяц целиком и за предыдущие месяцы Вы можете получить, выбрав интересующий диапазон дат из раскрывающегося списка и нажав кнопку "Ввод!".
Внимание! Архив погоды МЕТАР в базе сайта по станциям, не включенным в климатический монитор, хранится не более 60 дней. Нет смысла пытаться выбрать более раннюю дату.
*Определитесь, кто Вы:
Внимание! Время в таблицах - всемирное. Для получения местного времени необходимо прибавить поправку, которая равна ч.
Смотрите также архив погоды в соседних городах и на ближайших метеорологических станциях:
Партнеры нашего сайта:      
Пояснения к столбцам:
  • Ветер - указаны скорость ветра в м/с - средняя за 10 мин, порывы в срок и между сроками (в фигурных скобках) и направление, откуда дует ветер: С - северный,
  • СВ - северо-восточный, В - восточный, ЮВ - юго-восточный, Ю - южный, ЮЗ - юго-западный, З - западный, СЗ - северо-западный.
  • Видимость - горизонтальная дальность видимости в метрах или километрах. При видимости от 1 до 10 км при отсутствии осадков обычно наблюдается дымка, при ухудшении видимости до 1 км и менее - туман. В сухую погоду видимость может ухудшаться дымом, пылью или мглою.
  • Явления - указаны атмосферные явления, наблюдавшиеся в срок или в последний час перед сроком; фигурными скобками обозначены явления, наблюдавшиеся между сроками (за 1-3 часа до срока); квадратными скобками обозначены град или гололедные отложения с указанием их диаметра в мм.
  • Облачность - указаны через наклонную черту общая и нижняя облачность в баллах и высота нижней границы облаков в метрах; квадратными скобками обозначены формы облаков: Ci - перистые, Cs - перисто-слоистые, Cc - перисто-кучевые, Ac - высококучевые, As - высокослоистые, Sc - слоисто-кучевые, Ns - слоисто-дождевые, Cu - кучевые, Cb - кучево-дождевые. Подробнее классификацию облаков см. в Атласе облаков (PDF).
  • T - Температура воздуха - температура, измеренная на высоте 2 м над землей.
  • Td - Температура точки росы - температура, при понижении до которой содержащийся в воздухе водяной пар достигнет насыщения.
  • f - Относительная влажность воздуха - влажноcть воздуха, измеренная на высоте 2 м над землей.
  • Te - Эффективная температура - температура, которую ощущает одетый по сезону человек в тени. Характеристика душности погоды. При расчете учитывается влияние влажности воздуха и скорости ветра на теплоощущения человека.
  • Tes - Эффективная температура на солнце - температура, которую ощущает человек, с поправкой на солнечный нагрев. Характеристика знойности погоды. Зависит от высоты солнца над горизонтом, облачности и скорости ветра. Ночью, в пасмурную погоду, а также при ветре 12 м/с и более поправка равна нулю.
  • P - Атмосферное давление - приведенное к уровню моря атмосферное давление.
  • Po - Атмосферное давление - измеренное на уровне метеостанции атмосферное давление.
  • Tmin - Минимальная температура - минимум температуры воздуха на высоте 2 м над землей.
  • Tmax - Максимальная температура - максимум температуры воздуха на высоте 2 м над землей.
  • R - Количество осадков - Количество выпавших осадков за период времени, мм. При наведении курсора мыши на число - период времени, за который выпало указанное количество осадков.
  • R24 - Количество осадков - Количество выпавших осадков за 24 часа, мм.
  • S - Снежный покров - Высота снежного покрова, см. При наведении курсора мыши на число - состояние снежного покрова и степень покрытия местности в баллах.